TDRS 7

Last updated on Mon Nov 03 2025 00:02:46 GMT+0000 (Coordinated Universal Time)

1 23613U 95035B 25306.50813824 -.00000231 00000+0 00000+0 0 9999 2 23613 13.4724 349.7423 0004410 100.8141 223.3547 1.00278869110979
UTC large
Height (km)
Speed (km/s)
/
Latitude / Longitude
Inclination (degrees)
Orbital Period (minutes)
Azimuth
Elevation
Range (km)
Doppler Factor

Next 0 passes for location: London (51.5072 / 0.1276)

Sorry there are no passes over London.